User: anonymous   Login
Location: Charleston
(38.3500°N, 81.6330°W)
Time: 04:23:22
(UTC-04:00)
Language:

Cosmos 1812 Rocket - Orbit

View from above orbital plane
View from above orbital plane
View from above satellite
View from above satellite

Ground track
Ground track

The orbit data is extracted from the following two-line orbital elements,

1 17296U 87003B   16148.12316392  .00000110  00000-0  10529-4 0  9993
2 17296  82.5308  25.8712 0020422  56.1541 304.1613 14.83120407585893
Epoch (UTC): 27 May 2016 02:57:21
Eccentricity: 0.0020422
inclination: 82.5308°
perigee height: 605 km
apogee height: 634 km
right ascension of ascending node: 25.8712°
argument of perigee: 56.1541°
revolutions per day: 14.83120407
mean anomaly at epoch: 304.1613°
orbit number at epoch: 58589

The dashed part of the orbit path shows where the satellite is in the earth's shadow,  

DLR